SWA8750 KTUS-KHOU

Flight info

Callsign SWA8750
Flight time 1h 54m
Altitude 39000
Route NOCHI ELP J86 FST SAT BELLR6
Aircraft B737/M-SDE2E3FGHIRWXY/LB1

Departure

Time 2026-05-05 00:31
Airport Tucson International Airport (KTUS)

Arrival

Time 2026-05-05 02:25
Airport William P. Hobby Airport (KHOU)
Time Latitude Longitude Altitude Speed Heading
2026-05-05 00:15 32.11950 -110.93795 2583 ft 0 kts 108°
2026-05-05 00:21 32.11952 -110.93802 2583 ft 4 kts 108°
2026-05-05 00:21 32.11961 -110.93833 2583 ft 4 kts 108°
2026-05-05 00:21 32.11969 -110.93863 2583 ft 4 kts 108°
2026-05-05 00:21 32.11978 -110.93893 2582 ft 3 kts 108°
2026-05-05 00:22 32.11979 -110.93896 2582 ft 2 kts 108°
2026-05-05 00:25 32.11978 -110.93894 2582 ft 2 kts 108°
2026-05-05 00:25 32.11954 -110.93884 2576 ft 6 kts 197°
2026-05-05 00:25 32.11899 -110.93934 2569 ft 15 kts 226°
2026-05-05 00:26 32.11826 -110.93946 2565 ft 11 kts 142°
2026-05-05 00:26 32.11764 -110.93875 2563 ft 14 kts 135°
2026-05-05 00:26 32.11682 -110.93775 2566 ft 19 kts 133°
2026-05-05 00:26 32.11579 -110.93651 2568 ft 23 kts 137°
2026-05-05 00:27 32.11461 -110.93515 2573 ft 23 kts 134°
2026-05-05 00:27 32.11348 -110.93383 2569 ft 23 kts 136°
2026-05-05 00:27 32.11235 -110.93253 2567 ft 22 kts 135°
2026-05-05 00:27 32.11128 -110.93126 2564 ft 22 kts 135°
2026-05-05 00:28 32.11022 -110.93003 2566 ft 21 kts 135°
2026-05-05 00:28 32.10920 -110.92883 2565 ft 20 kts 135°
2026-05-05 00:28 32.10822 -110.92767 2567 ft 20 kts 135°
2026-05-05 00:28 32.10722 -110.92651 2569 ft 21 kts 135°
2026-05-05 00:29 32.10613 -110.92523 2572 ft 22 kts 135°
2026-05-05 00:29 32.10505 -110.92395 2570 ft 22 kts 135°
2026-05-05 00:29 32.10399 -110.92272 2569 ft 21 kts 135°
2026-05-05 00:29 32.10300 -110.92185 2566 ft 13 kts 195°
2026-05-05 00:30 32.10236 -110.92256 2564 ft 13 kts 225°
2026-05-05 00:30 32.10248 -110.92344 2565 ft 12 kts 314°
2026-05-05 00:30 32.10356 -110.92470 2566 ft 49 kts 315°
2026-05-05 00:30 32.10771 -110.92957 2564 ft 120 kts 315°
2026-05-05 00:31 32.11500 -110.93820 2586 ft 174 kts 315°
2026-05-05 00:31 32.12337 -110.94804 3120 ft 184 kts 315°
2026-05-05 00:31 32.13209 -110.95826 4234 ft 171 kts 315°
2026-05-05 00:31 32.14079 -110.96861 4838 ft 187 kts 314°
2026-05-05 00:32 32.15056 -110.97995 5327 ft 202 kts 314°
2026-05-05 00:32 32.16112 -110.99193 5778 ft 224 kts 312°
2026-05-05 00:32 32.17277 -111.00576 6120 ft 249 kts 311°
2026-05-05 00:32 32.18539 -111.02087 6697 ft 265 kts 311°
2026-05-05 00:33 32.19862 -111.03645 7477 ft 270 kts 314°
2026-05-05 00:33 32.21481 -111.04833 8308 ft 284 kts 339°
2026-05-05 00:33 32.23471 -111.05020 9207 ft 296 kts
2026-05-05 00:33 32.24158 -111.04835 9539 ft 299 kts 15°
2026-05-05 00:34 32.25220 -111.04298 10101 ft 302 kts 28°
2026-05-05 00:34 32.26858 -111.02672 10847 ft 316 kts 43°
2026-05-05 00:34 32.28397 -111.00848 11967 ft 305 kts 43°
2026-05-05 00:34 32.29794 -110.98960 12919 ft 311 kts 59°
2026-05-05 00:35 32.30552 -110.96469 13120 ft 339 kts 86°
2026-05-05 00:35 32.30757 -110.93618 13611 ft 356 kts 88°
2026-05-05 00:35 32.30936 -110.90635 14114 ft 374 kts 89°
2026-05-05 00:35 32.31116 -110.87460 14373 ft 398 kts 89°
2026-05-05 00:36 32.31316 -110.84161 15032 ft 407 kts 88°
2026-05-05 00:36 32.31508 -110.80804 15803 ft 410 kts 93°
2026-05-05 00:36 32.31405 -110.77493 17055 ft 397 kts 98°
2026-05-05 00:36 32.31159 -110.74265 18181 ft 393 kts 101°
2026-05-05 00:37 32.30849 -110.71037 18993 ft 398 kts 102°
2026-05-05 00:37 32.30509 -110.67752 19652 ft 407 kts 102°
2026-05-05 00:37 32.30161 -110.64403 20289 ft 415 kts 102°
2026-05-05 00:37 32.29815 -110.60993 21018 ft 420 kts 101°
2026-05-05 00:38 32.29475 -110.57543 21688 ft 426 kts 101°
2026-05-05 00:38 32.29136 -110.54042 22357 ft 432 kts 101°
2026-05-05 00:38 32.28802 -110.50545 23015 ft 436 kts 100°
2026-05-05 00:38 32.28460 -110.46957 23621 ft 442 kts 100°
2026-05-05 00:39 32.28115 -110.43326 24206 ft 447 kts 99°
2026-05-05 00:39 32.27766 -110.39647 24758 ft 454 kts 100°
2026-05-05 00:39 32.27410 -110.35917 25288 ft 459 kts 100°
2026-05-05 00:39 32.27050 -110.32151 25859 ft 464 kts 100°
2026-05-05 00:40 32.26683 -110.28340 26367 ft 470 kts 101°
2026-05-05 00:40 32.26309 -110.24484 26885 ft 475 kts 101°
2026-05-05 00:40 32.25931 -110.20593 27354 ft 480 kts 101°
2026-05-05 00:40 32.25547 -110.16649 27841 ft 485 kts 101°
2026-05-05 00:41 32.25162 -110.12679 28322 ft 489 kts 102°
2026-05-05 00:41 32.24770 -110.08668 28775 ft 493 kts 102°
2026-05-05 00:41 32.24373 -110.04617 29189 ft 498 kts 102°
2026-05-05 00:41 32.23971 -110.00536 29636 ft 502 kts 102°
2026-05-05 00:42 32.23564 -109.96424 30060 ft 506 kts 102°
2026-05-05 00:42 32.23152 -109.92277 30456 ft 510 kts 102°
2026-05-05 00:42 32.22736 -109.88103 30874 ft 514 kts 102°
2026-05-05 00:42 32.22317 -109.83903 31304 ft 517 kts 102°
2026-05-05 00:43 32.21894 -109.79676 31700 ft 520 kts 102°
2026-05-05 00:43 32.21466 -109.75425 32088 ft 523 kts 102°
2026-05-05 00:43 32.21036 -109.71151 32468 ft 526 kts 102°
2026-05-05 00:43 32.20601 -109.66849 32820 ft 529 kts 102°
2026-05-05 00:44 32.20162 -109.62529 33179 ft 531 kts 102°
2026-05-05 00:44 32.19721 -109.58190 33547 ft 533 kts 102°
2026-05-05 00:44 32.19278 -109.53850 34035 ft 531 kts 102°
2026-05-05 00:44 32.18845 -109.49599 34558 ft 527 kts 102°
2026-05-05 00:45 32.18405 -109.45304 34955 ft 527 kts 102°
2026-05-05 00:45 32.17960 -109.41002 35217 ft 529 kts 102°
2026-05-05 00:45 32.17509 -109.36682 35470 ft 532 kts 102°
2026-05-05 00:45 32.17057 -109.32356 35857 ft 530 kts 102°
2026-05-05 00:46 32.16609 -109.28049 36262 ft 528 kts 103°
2026-05-05 00:46 32.16160 -109.23750 36569 ft 528 kts 102°
2026-05-05 00:46 32.15708 -109.19447 36838 ft 529 kts 102°
2026-05-05 00:46 32.15254 -109.15149 37224 ft 526 kts 102°
2026-05-05 00:47 32.14804 -109.10879 37667 ft 522 kts 103°
2026-05-05 00:47 32.14356 -109.06645 38053 ft 519 kts 103°
2026-05-05 00:47 32.13906 -109.02422 38305 ft 520 kts 102°
2026-05-05 00:47 32.13452 -108.98183 38473 ft 522 kts 103°
2026-05-05 00:48 32.12993 -108.93929 38737 ft 522 kts 103°
2026-05-05 00:48 32.12536 -108.89698 39028 ft 521 kts 103°
2026-05-05 00:48 32.12075 -108.85436 39006 ft 527 kts 102°
2026-05-05 00:49 32.11144 -108.76859 39012 ft 526 kts 102°
2026-05-05 00:49 32.10225 -108.68375 38990 ft 518 kts 102°
2026-05-05 00:50 32.09309 -108.60017 39016 ft 517 kts 102°
2026-05-05 00:50 32.08377 -108.51596 39016 ft 518 kts 102°
2026-05-05 00:51 32.07440 -108.43169 39019 ft 518 kts 102°
2026-05-05 00:51 32.06499 -108.34750 39033 ft 518 kts 102°
2026-05-05 00:52 32.05549 -108.26321 39031 ft 519 kts 102°
2026-05-05 00:52 32.04593 -108.17880 39016 ft 520 kts 102°
2026-05-05 00:53 32.03633 -108.09431 38996 ft 520 kts 102°
2026-05-05 00:53 32.02667 -108.00988 38996 ft 520 kts 102°
2026-05-05 00:54 32.01694 -107.92552 39001 ft 520 kts 102°
2026-05-05 00:54 32.00715 -107.84115 38988 ft 519 kts 102°
2026-05-05 00:55 31.99740 -107.75747 38989 ft 519 kts 102°
2026-05-05 00:55 31.98753 -107.67336 38989 ft 518 kts 102°
2026-05-05 00:56 31.97762 -107.58930 38982 ft 518 kts 102°
2026-05-05 00:56 31.96767 -107.50540 38978 ft 517 kts 102°
2026-05-05 00:57 31.95769 -107.42172 38980 ft 516 kts 102°
2026-05-05 00:57 31.94764 -107.33809 38984 ft 516 kts 102°
2026-05-05 00:58 31.93756 -107.25461 38981 ft 515 kts 102°
2026-05-05 00:58 31.92742 -107.17102 38968 ft 516 kts 102°
2026-05-05 00:59 31.91721 -107.08742 38972 ft 516 kts 102°
2026-05-05 00:59 31.90696 -107.00392 38971 ft 515 kts 102°
2026-05-05 01:00 31.89667 -106.92048 38973 ft 515 kts 102°
2026-05-05 01:00 31.88629 -106.83693 38967 ft 516 kts 101°
2026-05-05 01:01 31.87592 -106.75388 38963 ft 517 kts 101°
2026-05-05 01:01 31.86543 -106.67021 38961 ft 517 kts 101°
2026-05-05 01:02 31.85487 -106.58650 38964 ft 518 kts 101°
2026-05-05 01:02 31.84423 -106.50260 38963 ft 519 kts 101°
2026-05-05 01:03 31.83352 -106.41858 38947 ft 519 kts 101°
2026-05-05 01:03 31.82276 -106.33453 38944 ft 520 kts 101°
2026-05-05 01:04 31.80954 -106.25104 38941 ft 518 kts 109°
2026-05-05 01:04 31.77896 -106.12944 38953 ft 517 kts 111°
2026-05-05 01:05 31.75829 -106.04837 38945 ft 519 kts 110°
2026-05-05 01:05 31.73792 -105.96683 38930 ft 520 kts 110°
2026-05-05 01:06 31.71765 -105.88527 38926 ft 521 kts 110°
2026-05-05 01:06 31.69729 -105.80363 38926 ft 521 kts 110°
2026-05-05 01:07 31.67698 -105.72254 38915 ft 521 kts 110°
2026-05-05 01:07 31.65649 -105.64101 38923 ft 521 kts 110°
2026-05-05 01:08 31.63593 -105.55958 38935 ft 520 kts 110°
2026-05-05 01:08 31.61536 -105.47819 38926 ft 520 kts 110°
2026-05-05 01:09 31.59481 -105.39700 38920 ft 519 kts 110°
2026-05-05 01:09 31.57417 -105.31593 38925 ft 518 kts 110°
2026-05-05 01:10 31.55346 -105.23504 38921 ft 518 kts 110°
2026-05-05 01:10 31.53269 -105.15413 38935 ft 518 kts 110°
2026-05-05 01:11 31.51192 -105.07326 38922 ft 518 kts 110°
2026-05-05 01:11 31.49110 -104.99244 38933 ft 518 kts 110°
2026-05-05 01:12 31.47026 -104.91171 38904 ft 517 kts 110°
2026-05-05 01:12 31.44939 -104.83119 38897 ft 516 kts 110°
2026-05-05 01:13 31.42846 -104.75068 38881 ft 517 kts 110°
2026-05-05 01:13 31.40748 -104.67020 38884 ft 517 kts 110°
2026-05-05 01:14 31.38653 -104.59009 38877 ft 518 kts 110°
2026-05-05 01:14 31.36885 -104.52259 38894 ft 518 kts 110°
2026-05-05 01:15 31.34428 -104.42906 38931 ft 518 kts 110°
2026-05-05 01:15 31.32646 -104.36159 38923 ft 519 kts 110°
2026-05-05 01:16 31.30168 -104.26780 38907 ft 520 kts 110°
2026-05-05 01:16 31.28374 -104.20009 38909 ft 521 kts 110°
2026-05-05 01:17 31.26237 -104.11965 38902 ft 522 kts 110°
2026-05-05 01:17 31.24078 -104.03867 38897 ft 522 kts 110°
2026-05-05 01:18 31.21913 -103.95763 38887 ft 523 kts 110°
2026-05-05 01:18 31.19741 -103.87659 38909 ft 523 kts 110°
2026-05-05 01:19 31.17562 -103.79553 38903 ft 524 kts 110°
2026-05-05 01:19 31.15374 -103.71436 38893 ft 524 kts 110°
2026-05-05 01:20 31.13182 -103.63319 38888 ft 525 kts 110°
2026-05-05 01:20 31.10981 -103.55201 38875 ft 525 kts 110°
2026-05-05 01:21 31.08776 -103.47087 38875 ft 525 kts 110°
2026-05-05 01:21 31.06560 -103.38961 38867 ft 525 kts 110°
2026-05-05 01:22 31.04343 -103.30842 38872 ft 525 kts 110°
2026-05-05 01:22 31.02125 -103.22739 38877 ft 524 kts 110°
2026-05-05 01:23 30.99917 -103.14703 38877 ft 523 kts 110°
2026-05-05 01:23 30.97694 -103.06631 38875 ft 523 kts 110°
2026-05-05 01:24 30.95454 -102.98518 38863 ft 522 kts 110°
2026-05-05 01:24 30.93272 -102.90528 38869 ft 521 kts 109°
2026-05-05 01:25 30.91106 -102.82476 38869 ft 521 kts 109°
2026-05-05 01:25 30.88940 -102.74436 38869 ft 520 kts 109°
2026-05-05 01:26 30.86770 -102.66416 38871 ft 519 kts 109°
2026-05-05 01:26 30.84592 -102.58405 38881 ft 519 kts 109°
2026-05-05 01:27 30.82410 -102.50404 38885 ft 519 kts 109°
2026-05-05 01:27 30.80224 -102.42416 38888 ft 518 kts 109°
2026-05-05 01:28 30.78033 -102.34428 38885 ft 519 kts 110°
2026-05-05 01:28 30.75835 -102.26435 38890 ft 519 kts 109°
2026-05-05 01:29 30.73634 -102.18449 38886 ft 519 kts 110°
2026-05-05 01:29 30.71429 -102.10470 38883 ft 519 kts 110°
2026-05-05 01:30 30.69218 -102.02491 38879 ft 519 kts 110°
2026-05-05 01:30 30.67003 -101.94520 38877 ft 518 kts 109°
2026-05-05 01:31 30.64800 -101.86613 38883 ft 518 kts 109°
2026-05-05 01:31 30.62576 -101.78652 38888 ft 518 kts 110°
2026-05-05 01:32 30.60349 -101.70704 38899 ft 518 kts 110°
2026-05-05 01:32 30.58117 -101.62755 38902 ft 518 kts 110°
2026-05-05 01:33 30.55882 -101.54819 38890 ft 518 kts 110°
2026-05-05 01:33 30.53642 -101.46886 38898 ft 517 kts 110°
2026-05-05 01:34 30.51400 -101.38965 38903 ft 517 kts 109°
2026-05-05 01:34 30.49151 -101.31037 38900 ft 518 kts 110°
2026-05-05 01:35 30.46895 -101.23116 38898 ft 517 kts 110°
2026-05-05 01:35 30.44635 -101.15191 38900 ft 518 kts 109°
2026-05-05 01:36 30.42371 -101.07271 38914 ft 518 kts 110°
2026-05-05 01:36 30.40101 -100.99350 38924 ft 518 kts 109°
2026-05-05 01:37 30.37846 -100.91484 38924 ft 519 kts 109°
2026-05-05 01:37 30.35556 -100.83557 38911 ft 519 kts 109°
2026-05-05 01:38 30.33264 -100.75637 38941 ft 519 kts 110°
2026-05-05 01:38 30.30941 -100.67730 38916 ft 516 kts 109°
2026-05-05 01:39 30.28686 -100.59888 38938 ft 513 kts 109°
2026-05-05 01:39 30.26412 -100.52052 38936 ft 514 kts 109°
2026-05-05 01:40 30.24128 -100.44208 38927 ft 515 kts 109°
2026-05-05 01:40 30.21867 -100.36331 38927 ft 518 kts 108°
2026-05-05 01:41 30.19601 -100.28439 38928 ft 517 kts 110°
2026-05-05 01:41 30.17208 -100.20610 38933 ft 516 kts 110°
2026-05-05 01:42 30.14832 -100.12780 38942 ft 516 kts 109°
2026-05-05 01:42 30.12561 -100.04971 38945 ft 516 kts 109°
2026-05-05 01:43 30.10247 -99.97076 38939 ft 516 kts 109°
2026-05-05 01:43 30.07926 -99.89243 38945 ft 515 kts 109°
2026-05-05 01:44 30.05611 -99.81469 38943 ft 515 kts 109°
2026-05-05 01:44 30.03276 -99.73650 38926 ft 515 kts 109°
2026-05-05 01:45 30.00941 -99.65845 38919 ft 515 kts 109°
2026-05-05 01:45 29.98600 -99.58042 38920 ft 514 kts 109°
2026-05-05 01:46 29.96259 -99.50259 38916 ft 514 kts 109°
2026-05-05 01:46 29.93916 -99.42485 38920 ft 513 kts 109°
2026-05-05 01:47 29.91565 -99.34710 38900 ft 513 kts 109°
2026-05-05 01:47 29.89217 -99.26951 38908 ft 512 kts 109°
2026-05-05 01:48 29.86868 -99.19209 38910 ft 512 kts 109°
2026-05-05 01:48 29.84513 -99.11478 38906 ft 512 kts 109°
2026-05-05 01:49 29.82154 -99.03737 38916 ft 512 kts 109°
2026-05-05 01:49 29.79808 -98.96063 38915 ft 512 kts 109°
2026-05-05 01:50 29.77444 -98.88348 38916 ft 512 kts 109°
2026-05-05 01:50 29.75069 -98.80619 38916 ft 512 kts 109°
2026-05-05 01:51 29.72692 -98.72901 38911 ft 512 kts 109°
2026-05-05 01:51 29.70310 -98.65179 38918 ft 513 kts 109°
2026-05-05 01:52 29.67916 -98.57438 38912 ft 514 kts 109°
2026-05-05 01:52 29.65514 -98.49690 38905 ft 515 kts 109°
2026-05-05 01:53 29.63487 -98.41805 38898 ft 514 kts 99°
2026-05-05 01:53 29.62318 -98.33709 38890 ft 513 kts 95°
2026-05-05 01:54 29.61245 -98.25598 38882 ft 515 kts 96°
2026-05-05 01:54 29.60067 -98.17452 38877 ft 516 kts 97°
2026-05-05 01:55 29.58828 -98.09375 38875 ft 518 kts 97°
2026-05-05 01:55 29.58196 -98.05292 38477 ft 522 kts 97°
2026-05-05 01:55 29.57559 -98.01177 37947 ft 522 kts 97°
2026-05-05 01:56 29.56923 -97.97075 37392 ft 521 kts 97°
2026-05-05 01:56 29.56289 -97.92982 36816 ft 521 kts 97°
2026-05-05 01:56 29.55654 -97.88889 36230 ft 520 kts 97°
2026-05-05 01:56 29.55019 -97.84800 35654 ft 519 kts 97°
2026-05-05 01:57 29.54387 -97.80741 35202 ft 515 kts 97°
2026-05-05 01:57 29.53758 -97.76705 34742 ft 511 kts 97°
2026-05-05 01:57 29.53132 -97.72704 34283 ft 508 kts 97°
2026-05-05 01:57 29.52509 -97.68725 33846 ft 504 kts 97°
2026-05-05 01:58 29.51890 -97.64780 33402 ft 500 kts 97°
2026-05-05 01:58 29.51275 -97.60863 32961 ft 497 kts 97°
2026-05-05 01:58 29.50662 -97.56971 32527 ft 494 kts 97°
2026-05-05 01:58 29.50052 -97.53113 32092 ft 490 kts 97°
2026-05-05 01:59 29.49445 -97.49274 31647 ft 487 kts 96°
2026-05-05 01:59 29.48841 -97.45455 31223 ft 484 kts 96°
2026-05-05 01:59 29.48241 -97.41664 30789 ft 482 kts 96°
2026-05-05 01:59 29.47642 -97.37894 30359 ft 479 kts 96°
2026-05-05 02:00 29.47043 -97.34139 29927 ft 477 kts 97°
2026-05-05 02:00 29.46449 -97.30409 29496 ft 473 kts 96°
2026-05-05 02:00 29.45856 -97.26705 29043 ft 470 kts 97°
2026-05-05 02:00 29.45267 -97.23028 28584 ft 467 kts 97°
2026-05-05 02:01 29.44681 -97.19373 28115 ft 465 kts 97°
2026-05-05 02:01 29.44097 -97.15739 27652 ft 461 kts 97°
2026-05-05 02:01 29.43525 -97.12181 27195 ft 459 kts 97°
2026-05-05 02:01 29.42941 -97.08549 26727 ft 456 kts 97°
2026-05-05 02:02 29.42365 -97.04984 26272 ft 453 kts 97°
2026-05-05 02:02 29.41798 -97.01491 25847 ft 449 kts 97°
2026-05-05 02:02 29.41232 -96.98007 25596 ft 440 kts 97°
2026-05-05 02:02 29.40750 -96.94562 25209 ft 435 kts 94°
2026-05-05 02:03 29.40512 -96.92247 24936 ft 431 kts 92°
2026-05-05 02:03 29.40124 -96.87733 24351 ft 427 kts 91°
2026-05-05 02:03 29.39842 -96.84349 23901 ft 425 kts 92°
2026-05-05 02:03 29.39549 -96.80982 23435 ft 423 kts 92°
2026-05-05 02:04 29.39243 -96.77634 22975 ft 421 kts 93°
2026-05-05 02:04 29.38929 -96.74308 22511 ft 419 kts 93°
2026-05-05 02:04 29.38612 -96.70992 22045 ft 417 kts 93°
2026-05-05 02:04 29.38296 -96.67705 21579 ft 414 kts 93°
2026-05-05 02:05 29.38083 -96.65491 21261 ft 412 kts 93°
2026-05-05 02:05 29.37666 -96.61194 20720 ft 405 kts 94°
2026-05-05 02:05 29.37354 -96.58020 20261 ft 396 kts 94°
2026-05-05 02:05 29.37048 -96.54910 19822 ft 388 kts 94°
2026-05-05 02:06 29.36749 -96.51873 19377 ft 380 kts 94°
2026-05-05 02:06 29.36555 -96.49896 19090 ft 374 kts 94°
2026-05-05 02:06 29.36266 -96.46954 18686 ft 370 kts 94°
2026-05-05 02:06 29.35979 -96.44035 18275 ft 367 kts 94°
2026-05-05 02:07 29.35695 -96.41130 17848 ft 366 kts 94°
2026-05-05 02:07 29.35411 -96.38239 17426 ft 364 kts 94°
2026-05-05 02:07 29.35126 -96.35352 17012 ft 362 kts 94°
2026-05-05 02:07 29.34844 -96.32496 16584 ft 360 kts 94°
2026-05-05 02:08 29.34563 -96.29653 16163 ft 358 kts 94°
2026-05-05 02:08 29.34282 -96.26827 15730 ft 356 kts 95°
2026-05-05 02:08 29.34002 -96.24013 15299 ft 354 kts 95°
2026-05-05 02:08 29.33724 -96.21228 14851 ft 348 kts 95°
2026-05-05 02:09 29.33452 -96.18505 14438 ft 341 kts 95°
2026-05-05 02:09 29.33183 -96.15829 14025 ft 335 kts 95°
2026-05-05 02:09 29.32918 -96.13181 13629 ft 334 kts 95°
2026-05-05 02:09 29.32728 -96.10536 13203 ft 332 kts 84°
2026-05-05 02:10 29.33248 -96.08019 12863 ft 321 kts 62°
2026-05-05 02:10 29.34423 -96.05911 12597 ft 309 kts 48°
2026-05-05 02:10 29.35749 -96.03992 12318 ft 307 kts 47°
2026-05-05 02:10 29.37095 -96.02087 12038 ft 308 kts 47°
2026-05-05 02:11 29.38441 -96.00175 11760 ft 308 kts 47°
2026-05-05 02:11 29.39779 -95.98259 11481 ft 307 kts 48°
2026-05-05 02:11 29.41104 -95.96346 11197 ft 305 kts 48°
2026-05-05 02:11 29.42422 -95.94436 10921 ft 305 kts 49°
2026-05-05 02:12 29.43718 -95.92557 10649 ft 304 kts 49°
2026-05-05 02:12 29.46333 -95.88749 10111 ft 303 kts 50°
2026-05-05 02:12 29.47611 -95.86832 9830 ft 302 kts 52°
2026-05-05 02:13 29.48820 -95.84871 9547 ft 300 kts 54°
2026-05-05 02:13 29.50003 -95.82904 9271 ft 299 kts 54°
2026-05-05 02:13 29.51183 -95.80942 8998 ft 299 kts 54°
2026-05-05 02:13 29.52367 -95.78981 8714 ft 299 kts 55°
2026-05-05 02:14 29.53551 -95.77027 8438 ft 298 kts 54°
2026-05-05 02:14 29.54733 -95.75076 8159 ft 297 kts 54°
2026-05-05 02:14 29.55913 -95.73135 7874 ft 296 kts 54°
2026-05-05 02:14 29.57091 -95.71195 7602 ft 295 kts 54°
2026-05-05 02:15 29.58261 -95.69270 7321 ft 293 kts 54°
2026-05-05 02:15 29.59303 -95.67559 7076 ft 291 kts 54°
2026-05-05 02:15 29.60454 -95.65659 6799 ft 288 kts 54°
2026-05-05 02:15 29.61600 -95.63785 6523 ft 284 kts 51°
2026-05-05 02:16 29.63007 -95.62247 6341 ft 278 kts 37°
2026-05-05 02:16 29.64536 -95.60936 6063 ft 268 kts 34°
2026-05-05 02:16 29.66018 -95.59709 5819 ft 257 kts 34°
2026-05-05 02:16 29.67434 -95.58522 5582 ft 247 kts 35°
2026-05-05 02:17 29.68789 -95.57367 5361 ft 239 kts 36°
2026-05-05 02:17 29.70094 -95.56238 5143 ft 230 kts 37°
2026-05-05 02:17 29.71342 -95.55154 4971 ft 220 kts 37°
2026-05-05 02:17 29.72530 -95.54114 4803 ft 213 kts 38°
2026-05-05 02:18 29.73718 -95.53068 4620 ft 216 kts 38°
2026-05-05 02:18 29.74903 -95.52022 4404 ft 213 kts 38°
2026-05-05 02:18 29.76067 -95.50996 4213 ft 209 kts 39°
2026-05-05 02:18 29.77219 -95.49979 4031 ft 209 kts 39°
2026-05-05 02:19 29.78367 -95.48948 3833 ft 209 kts 46°
2026-05-05 02:19 29.78999 -95.47534 3605 ft 195 kts 94°
2026-05-05 02:19 29.78638 -95.46154 3500 ft 176 kts 124°
2026-05-05 02:19 29.78066 -95.44919 3313 ft 174 kts 124°
2026-05-05 02:20 29.77429 -95.43767 3112 ft 166 kts 131°
2026-05-05 02:20 29.76769 -95.42736 2971 ft 157 kts 132°
2026-05-05 02:20 29.76082 -95.41745 2836 ft 160 kts 135°
2026-05-05 02:20 29.75338 -95.40795 2674 ft 159 kts 136°
2026-05-05 02:21 29.74599 -95.39891 2522 ft 155 kts 137°
2026-05-05 02:21 29.73855 -95.38999 2385 ft 154 kts 137°
2026-05-05 02:21 29.73117 -95.38119 2279 ft 148 kts 137°
2026-05-05 02:21 29.72447 -95.37319 2192 ft 129 kts 137°
2026-05-05 02:22 29.71839 -95.36597 2006 ft 123 kts 137°
2026-05-05 02:22 29.71252 -95.35884 1856 ft 127 kts 137°
2026-05-05 02:22 29.70618 -95.35125 1688 ft 133 kts 136°
2026-05-05 02:22 29.69989 -95.34371 1511 ft 129 kts 136°
2026-05-05 02:23 29.69376 -95.33634 1334 ft 126 kts 137°
2026-05-05 02:23 29.68769 -95.32907 1123 ft 126 kts 137°
2026-05-05 02:23 29.68169 -95.32194 964 ft 124 kts 136°
2026-05-05 02:23 29.67563 -95.31474 812 ft 127 kts 136°
2026-05-05 02:24 29.66938 -95.30746 667 ft 128 kts 135°
2026-05-05 02:24 29.66319 -95.30005 490 ft 127 kts 135°
2026-05-05 02:24 29.65708 -95.29276 316 ft 127 kts 135°
2026-05-05 02:24 29.65094 -95.28550 151 ft 126 kts 135°
2026-05-05 02:25 29.64493 -95.27839 51 ft 113 kts 135°
2026-05-05 02:25 29.64095 -95.27367 51 ft 52 kts 134°
2026-05-05 02:25 29.63934 -95.27123 50 ft 28 kts 111°
2026-05-05 02:25 29.63921 -95.27002 51 ft 13 kts 91°
2026-05-05 02:26 29.63927 -95.26898 51 ft 13 kts 70°
2026-05-05 02:26 29.64003 -95.26864 48 ft 13 kts
2026-05-05 02:26 29.64090 -95.26860 51 ft 13 kts
2026-05-05 02:26 29.64174 -95.26903 51 ft 15 kts 315°
2026-05-05 02:27 29.64240 -95.26992 49 ft 14 kts 309°
2026-05-05 02:27 29.64303 -95.27077 49 ft 14 kts 314°
2026-05-05 02:27 29.64364 -95.27164 49 ft 16 kts 303°
2026-05-05 02:27 29.64439 -95.27297 51 ft 23 kts 314°
2026-05-05 02:28 29.64554 -95.27436 51 ft 24 kts 314°
2026-05-05 02:28 29.64691 -95.27512 51 ft 23 kts 359°
2026-05-05 02:28 29.64847 -95.27518 51 ft 22 kts 358°
2026-05-05 02:28 29.64988 -95.27520 48 ft 18 kts 360°
2026-05-05 02:29 29.65085 -95.27522 51 ft 11 kts 358°
2026-05-05 02:29 29.65127 -95.27528 51 ft 2 kts 352°
2026-05-05 02:29 29.65142 -95.27530 51 ft 2 kts 359°
2026-05-05 02:29 29.65148 -95.27547 51 ft 5 kts 274°
2026-05-05 02:30 29.65145 -95.27650 51 ft 18 kts 268°
2026-05-05 02:30 29.65143 -95.27798 51 ft 18 kts 268°
2026-05-05 02:30 29.65189 -95.27924 51 ft 18 kts 315°
2026-05-05 02:30 29.65285 -95.27978 51 ft 15 kts 29°
2026-05-05 02:31 29.65334 -95.27881 51 ft 14 kts 68°
2026-05-05 02:31 29.65368 -95.27781 51 ft 11 kts 68°
2026-05-05 02:31 29.65359 -95.27732 51 ft 5 kts 139°
2026-05-05 02:31 29.65342 -95.27726 51 ft 1 kts 170°
2026-05-05 02:32 29.65337 -95.27725 51 ft 1 kts 172°
2026-05-05 02:32 29.65333 -95.27725 51 ft 0 kts 173°